Flag for India Weather past 2 weeks in Nãgpur, Maharashtra, India

Now
82 °F

Partly cloudy.


Feels Like: 91 °F
Forecast: 77 / 84 °F
Wind: 5 mph from Southwest

Location: Nagpur Sonegaon

Current Time: Jul 30, 2014 at 9:02:15 PM

Latest Report: Jul 30, 2014 at 7:40 PM


Visibility: 2 mi

Pressure: 29.59 "Hg

Humidity: 84%

Dew point: 77 °F

Location of NãgpurLocation

Historic Weather in Nãgpur — Graph

°F

Nãgpur temperature yesterday

Maximum temperature yesterday: 91 °F (at 3:40 PM)
Minimum temperature yesterday: 77 °F (at 6:40 AM)
Average temperature yesterday: 84 °F

Past Weeks' High & Low Weather Summary

 TemperatureHumidityPressure
High91 °F (Jul 29, 3:40 PM)100% (Jul 15, 7:40 PM)29.77 "Hg (Jul 15, 7:40 PM)
Low68 °F (Jul 23, 7:40 AM)35% (Jul 28, 5:40 PM)29.42 "Hg (Jul 23, 4:40 AM)
Average79 °F91%29.60 "Hg
* Reported Jul 15 7:40 PM — Jul 30 7:40 PM, Nãgpur, Weather by CustomWeather, © 2014

Note: Actual official high and low records may vary slightly from our data, if they occured in-between our weather recording intervals... More about our weather records

Advertising

Nãgpur weather history for previous 24 hours

 ConditionsComfort  
Time TempWeatherWind HumidityBarometerVisibility
7:40 PM
Jul 30
82 °FPartly cloudy.5 mph84%29.59 "Hg2 mi
6:40 PM84 °FBroken clouds.5 mph79%29.56 "Hg2 mi
5:40 PM86 °FPartly sunny.6 mph75%29.56 "Hg2 mi
4:40 PM88 °FBroken clouds.8 mph75%29.53 "Hg4 mi
3:40 PM88 °FBroken clouds.6 mph75%29.56 "Hg4 mi
2:40 PM90 °FBroken clouds.7 mph71%29.56 "Hg4 mi
12:40 PM86 °FBroken clouds.6 mph75%29.62 "Hg4 mi
11:40 AM84 °FBroken clouds.7 mph79%29.65 "Hg4 mi
10:40 AM84 °FBroken clouds.7 mph79%29.65 "Hg4 mi
8:40 AM81 °FPartly sunny.7 mph84%29.65 "Hg3 mi
7:40 AM77 °FPartly sunny.3 mph89%29.65 "Hg3 mi
6:40 AM77 °FScattered clouds.2 mph89%29.62 "Hg3 mi
4:40 AM77 °FPartly cloudy.3 mph94%29.59 "Hg3 mi
11:40 PM
Jul 29
79 °FPartly cloudy.5 mph89%29.62 "Hg3 mi
10:40 PM79 °FPassing clouds.6 mph89%29.62 "Hg3 mi
9:40 PM81 °FPassing clouds.5 mph89%29.65 "Hg3 mi
Weather by CustomWeather, © 2014

See weather overviewHow to use our weather pages